Location: Zihuatanejo
(17.6330°N, 101.5500°W)
Time: 21:16:24
(UTC-05:00)

Daily predictions for brighter satellites

Satellite Brightness Start Highest point End
(mag) Time Altitude Azimuth Time Altitude Azimuth Time Altitude Azimuth
H-2A R/B 4.1 18:34:44 10° NW 18:39:28 62° NNE 19:17:37 10° ESE
COSMOS 2406 3.7 20:28:49 10° S 20:34:09 40° ESE 20:39:27 10° NE
ALOS 2.6 20:32:18 10° SSE 20:36:45 46° ENE 20:41:11 10° N
Abrixas 3.1 20:34:34 10° NNW 20:37:06 34° NE 20:39:37 10° ESE
Cosmos 773 Rocket 3.9 20:32:38 10° S 20:37:46 73° ESE 20:42:53 10° NNE
Cosmos 1812 2.7 20:34:30 10° S 20:38:22 86° E 20:42:14 10° N
Cosmos 1300 Rocket 4.2 20:34:47 10° NNW 20:39:10 62° W 20:43:32 10° S
NOSS 3-2 (A) 4.4 20:33:58 10° NNW 20:41:42 53° ENE 20:49:43 10° SE
IUS-7 SRM-1 4.2 20:41:54 10° WNW 20:45:26 82° SSW 21:02:00 12° ESE
GPS 2-12 Rocket1 3.5 20:42:09 10° W 20:46:30 48° SSW 20:50:42 10° ESE
FENGYUN 3A 3.8 20:41:38 10° SSE 20:46:52 59° ENE 20:52:07 10° N
ISS -0.6 20:48:31 10° W 20:50:45 17° NW 20:52:59 10° N
Cosmos 1536 3.7 20:47:46 10° NNW 20:51:38 52° W 20:55:31 10° S
Cosmos 372 Rocket 3.9 20:46:38 10° NNW 20:51:47 85° ENE 20:56:52 10° SSE
Fermi 4.4 20:49:26 10° SW 20:53:09 34° SSE 20:56:46 10° E
Meteor 1-18 Rocket 4.4 20:47:36 10° S 20:53:31 86° W 20:59:27 10° N
Cosmos 1975 4.4 20:51:34 10° NE 20:54:26 18° E 20:56:34 13° ESE
Cosmos 1975 Rocket 4.3 20:51:51 10° SSW 20:56:08 46° W 21:00:25 10° N
Spot 2 Rocket 4.5 20:52:56 10° SE 20:57:14 28° ENE 21:01:30 10° NNE
SL-27 R/B 3.6 20:56:55 10° SSE 20:59:57 25° E 21:03:01 10° NE
Okean 1 Rocket 4.1 20:55:56 10° NNW 21:00:13 49° W 21:04:28 10° SSW
GPS 2-14 Rocket1 2.6 20:56:48 10° W 21:00:35 77° N 21:04:24 10° ENE
H-2A R/B 2.8 20:59:50 10° SSE 21:03:28 52° ENE 21:07:04 10° N
Cosmos 1680 Rocket 3.5 21:04:04 10° S 21:09:14 64° ESE 21:14:24 10° NNE
Iridium 4 Rocket 3.7 21:07:10 10° N 21:12:33 62° E 21:18:17 10° S
Cosmos 1437 2.6 21:10:58 10° S 21:14:09 84° E 21:17:22 10° N
Cosmos 1709 Rocket 4.0 21:08:27 10° N 21:14:32 59° E 21:20:33 10° SSE
CZ-3B Rocket 1.7 21:12:42 10° W 21:16:16 85° S 21:21:32 13° E
Cosmos 1536 Rocket 3.4 21:13:35 10° S 21:17:54 77° E 21:22:12 10° N
Envisat 4.2 21:17:49 20° E 21:19:28 23° ENE 21:23:24 10° NNE
SJ-6B 3.9 21:16:00 10° S 21:19:58 47° W 21:23:57 10° NNW
Meteor 2-4 Rocket 4.2 21:18:01 13° SSE 21:22:25 37° E 21:27:36 10° NNE
USA 186 2.5 21:22:26 32° E 21:22:55 33° ENE 21:25:51 10° NNE
Meteor 1-12 Rocket 4.3 21:22:27 10° N 21:28:23 65° E 21:32:56 17° SSE
Cosmos 192 4.2 21:24:05 10° S 21:28:57 70° ESE 21:33:49 10° NNE
Hubble Space Telescope 0.6 21:27:56 10° WSW 21:32:04 84° SSE 21:34:23 25° ENE
COSMOS 2455 3.0 21:27:21 10° N 21:33:11 54° ENE 21:36:04 29° SE
Helios 1B rocket 2.3 21:30:13 10° NNE 21:34:20 76° ESE 21:38:19 11° S
Cosmos 1025 Rocket 4.4 21:36:05 23° ENE 21:36:05 23° ENE 21:38:31 10° NE
GPS 2-18 Rocket1 3.2 21:33:22 10° WNW 21:37:04 66° N 21:38:09 42° ENE
Maqsat-H 4.1 21:32:14 10° SW 21:37:04 32° SSE 21:42:04 24° SE
Intelsat 5-1 Rocket 3.1 21:35:48 10° W 21:42:40 34° SW 21:43:56 28° S
H-10 deb 3.7 21:41:11 10° SW 21:41:54 12° SSW 21:41:54 12° SSW
CZ-3A R/B 3.3 21:30:52 10° SW 21:43:27 52° WNW 21:47:09 10° NNE
Cosmos 405 Rocket 3.3 21:41:06 10° SSW 21:44:43 54° W 21:48:24 10° N
Resurs 1-3 3.8 21:42:36 23° S 21:45:16 70° W 21:49:38 10° NNW
Aureole 1 Rocket 3.8 21:42:18 10° SSW 21:46:11 43° WNW 21:49:21 10° N
Cosmos 1544 Rocket 3.8 21:42:26 10° NNW 21:46:43 66° W 21:49:17 23° S
Cosmos 2369 Rocket 3.7 21:43:16 10° NW 21:48:15 32° WSW 21:53:16 10° SSW
BREEZE-M DEB (TANK) 2.2 21:45:24 10° SW 21:51:09 62° S 21:51:09 62° S
Cosmos 1943 Rocket 2.4 21:46:08 10° NNW 21:51:39 67° WSW 21:54:42 26° S
Cosmos 1441 Rocket 2.9 21:53:25 84° SE 21:53:29 85° E 21:57:13 10° N
Cosmos 2074 Rocket 4.1 21:50:13 10° N 21:56:19 53° E 21:57:47 44° SE
Resurs 01 Rocket 2.9 21:56:04 16° SSW 21:59:08 38° W 22:03:14 10° NNW
Cosmos 2184 Rocket 4.1 21:53:32 10° N 21:59:41 54° E 22:00:55 47° ESE
Meteor 1-23 Rocket 4.1 21:57:45 39° SSE 21:59:46 69° E 22:05:18 10° NNE
Cosmos 1455 Rocket 4.4 22:07:38 10° NNW 22:11:35 35° W 22:13:23 24° SW
Nadezhda 1 Rocket 4.1 22:10:10 20° SSW 22:14:39 75° W 22:21:02 10° N
Cosmos 2082 Rocket 3.6 22:23:35 25° NE 22:23:35 25° NE 22:26:00 10° NNE
CENTAUR R/B 3.1 22:14:40 10° NNW 22:22:58 71° ENE 22:24:52 55° ESE
Blok-L 4.1 22:17:08 10° NNW 22:25:58 68° W 22:25:58 68° W
Centaur Rocket 4.4 22:08:17 10° W 22:29:41 86° S 22:31:11 62° ESE
Cosmos 1743 4.4 22:27:19 10° NNW 22:30:08 33° WNW 22:30:08 33° WNW
ASTEX 1 4.0 22:34:37 53° NNW 22:34:37 53° NNW 22:38:21 10° N
Helios 1A 4.4 22:35:28 36° WNW 22:35:28 36° WNW 22:38:44 10° NNW
Cosmos 2154 Rocket 4.3 22:37:30 10° N 22:42:32 55° NNE 22:42:32 55° NNE
Gbstr 26 Del rocket 4.5 22:39:07 10° NNW 22:47:11 68° NE 22:47:26 68° ENE
Cosmos 1833 Rocket 4.2 23:00:37 29° N 23:00:37 29° N 23:03:19 10° NNE
Aurora 2 Rocket 4.4 23:17:35 10° WNW 23:25:33 76° NNW 23:25:33 76° NNW
